Hourly Weather Roundup
Issued by NWS Central Illinois

Home | Current Version | Previous Version | Text Only | Print | Product List | Glossary On
Versions: 1 2 3 4 5 6 7 8 9 10 11 12 13 14 15 16 17 18 19 20 21 22 23 24 25 26 27 28 29 30 31 32 33 34 35 36 37 38 39 40 41 42 43 44 45 46 47 48 49 50
000
NZUS43 KILX 021610
HWRILX

AREA WEATHER ROUNDUP
NATIONAL WEATHER SERVICE, LINCOLN IL
1100 AM CDT THU OCT 02 2014


CITY           SKY/WX    TMP DP  RH WIND       PRES   REMARKS
BLOOMINGTON    MOSUNNY   72  67  84 S18         N/A
CHAMPAIGN      PTSUNNY   71  65  81 S14       29.89S
DECATUR        CLOUDY    72  67  84 S10       29.89R
FLORA          SUNNY     79  64  58 S9        29.92F HX  81
GALESBURG      CLOUDY    65  64  93 SE5       29.83S
JACKSONVILLE   TSTM      68  66  93 SW13      29.90R
LACON          CLOUDY    68  64  87 SW7       29.84S
LAWRENCEVILLE  SUNNY     77  62  59 CALM      29.95F
LITCHFIELD     CLOUDY    68  64  88 SE13      29.87F
$$


CITY           SKY/WX    TMP DP  RH WIND       PRES   REMARKS
LINCOLN        CLOUDY    73  67  82 S9G17     29.85R
MACOMB         RAIN      64  64  99 S9        29.85S
MATTOON        CLOUDY    69  65  86 S20G25    29.88R
MT CARMEL AP   SUNNY     82  63  51 SW7       29.94F HX  83
OLNEY-NOBLE AP MOSUNNY   79  64  61 CALM      29.93F HX  81
PARIS          CLOUDY    67  65  96 S8        29.92R
PEORIA         CLOUDY    69  64  84 S8        29.87R
PONTIAC        CLOUDY    73  68  83 S7        29.86F
RANTOUL        PTSUNNY   75  65  72 S13G18    29.88S
ROBINSON       MOSUNNY   76  65  67 SE7       29.95F
SPRINGFIELD    CLOUDY    70  66  87 S8        29.88R
TAYLORVILLE    CLOUDY    70  66  88 S7        29.88R
$$

...REGIONAL REPORTS...


CITY           SKY/WX    TMP DP  RH WIND       PRES   REMARKS
CHICAGO O`HARE CLOUDY    71  63  75 S12       29.85F
KANKAKEE       CLOUDY    70  67  89 CALM      29.88F
MOLINE         CLOUDY    68  64  87 S7        29.82F
MOUNT VERNON   NOT AVBL
PITTSFIELD     RAIN      66  64  90 S10G17    29.90R
QUINCY         RAIN      65  62  90 S12       29.84F FOG
ROCKFORD       CLOUDY    72  62  71 S13       29.84F
$$


CITY           SKY/WX    TMP DP  RH WIND       PRES   REMARKS
BURLINGTON     CLOUDY    65  65 100 S8        29.80F
CEDAR RAPIDS   PTSUNNY   68  64  88 S9        29.79F
DES MOINES     FOG       65  63  93 E5        29.76S VSB 1
KIRKSVILLE     LGT RAIN  66  64  93 S7        29.78F
OTTUMWA        CLOUDY    66  63  90 SE8       29.78S
ST LOUIS       CLOUDY    71  67  87 W7        29.89R
$$


CITY           SKY/WX    TMP DP  RH WIND       PRES   REMARKS
TERRE HAUTE    PTSUNNY   70  63  78 SE13      29.94F
EVANSVILLE     CLOUDY    80  64  58 S7        29.95F HX  82
INDIANAPOLIS   LGT RAIN  66  61  84 S15       29.94S
LAFAYETTE      MOSUNNY   73  65  75 S13G24    29.89S
MADISON        CLOUDY    64  59  83 CALM      29.83F
MILWAUKEE      CLOUDY    69  61  75 SW10      29.84S
$$




USA.gov is the U.S. government's official web portal to all federal, state and local government web resources and services.